This is the latest recevied weather packets stored in our database for station/object AF5AA. If no packets are shown the sender has not sent any weather packets the latest 10 day(s).
| Time | Temp. | Humidity | Pressure | Rain* | Wind** | Luminosity | Snow |
|---|---|---|---|---|---|---|---|
| 1777295697 | 24.44° C | 92% | 1008.8 hPa | 0 mm | - | 24 W/m² | - |
| 1777295395 | 24.44° C | 92% | 1008.6 hPa | 0 mm | - | 11 W/m² | - |
| 1777295092 | 24.44° C | 93% | 1008.5 hPa | 0 mm | - | 16 W/m² | - |
| 1777294789 | 24.44° C | 93% | 1008.6 hPa | 0 mm | - | 13 W/m² | - |
| 1777294484 | 24.44° C | 93% | 1008.5 hPa | 0 mm | - | 25 W/m² | - |
| 1777294181 | 24.44° C | 93% | 1008.6 hPa | 0 mm | - | 17 W/m² | - |
| 1777293878 | 24.44° C | 93% | 1008.7 hPa | 0 mm | - | 12 W/m² | - |
| 1777293573 | 24.44° C | 94% | 1008.3 hPa | 0 mm | - | 12 W/m² | - |
| 1777293269 | 23.89° C | 94% | 1008.5 hPa | 0 mm | - | 11 W/m² | - |
| 1777292968 | 23.89° C | 94% | 1008.4 hPa | 0 mm | - | 8 W/m² | - |
| 1777292664 | 23.89° C | 94% | 1008.2 hPa | 0 mm | - | 7 W/m² | - |
| 1777292360 | 23.89° C | 94% | 1008.2 hPa | 0 mm | - | 3 W/m² | - |
| 1777292056 | 23.89° C | 94% | 1008.2 hPa | 0 mm | - | 3 W/m² | - |
| 1777291753 | 23.89° C | 93% | 1008.2 hPa | 0 mm | - | 3 W/m² | - |
| 1777291450 | 23.89° C | 93% | 1008 hPa | 0 mm | - | 3 W/m² | - |
| 1777291147 | 23.89° C | 93% | 1008.2 hPa | 0 mm | - | 1 W/m² | - |
| 1777290844 | 23.89° C | 93% | 1008.1 hPa | 0 mm | - | 1 W/m² | - |
| 1777290540 | 23.89° C | 93% | 1007.8 hPa | 0 mm | - | 1 W/m² | - |
| 1777290236 | 23.89° C | 93% | 1007.7 hPa | 0 mm | - | 0 W/m² | - |
| 1777289933 | 23.89° C | 93% | 1007.6 hPa | 0 mm | - | 0 W/m² | - |
| 1777289629 | 23.89° C | 93% | 1007.6 hPa | 0 mm | - | 0 W/m² | - |
| 1777289325 | 23.89° C | 93% | 1007.6 hPa | 0 mm | - | 0 W/m² | - |
| 1777289021 | 23.89° C | 93% | 1007.5 hPa | 0 mm | - | 0 W/m² | - |
| 1777288718 | 23.89° C | 93% | 1007.4 hPa | 0 mm | - | 0 W/m² | - |
| 1777288416 | 23.89° C | 93% | 1007.4 hPa | 0 mm | - | 0 W/m² | - |
* Rain latest hour (hover to see other rain measurements)
** Current wind speed in m/s (hover to see current wind gust speed)